Time,TemperatureF,DewpointF,PressureIn,WindDirection,WindDirectionDegrees,WindSpeedMPH,WindSpeedGustMPH,Humidity,HourlyPrecipIn,Conditions,Clouds,dailyrainin,SoftwareType,DateUTC
2013-07-14 00:02:00,67.0,64.0,30.04,South,175,0.0,0.0,91,0.00,,,0.04,,2013-07-14 05:02:00,
2013-07-14 00:11:00,67.0,64.0,30.04,South,175,0.0,1.0,90,0.00,,,0.04,,2013-07-14 05:11:00,
2013-07-14 00:23:00,67.0,64.0,30.04,South,175,0.0,0.0,91,0.00,,,0.04,,2013-07-14 05:23:00,
2013-07-14 00:32:00,67.0,64.0,30.04,South,175,0.0,0.0,91,0.00,,,0.04,,2013-07-14 05:32:00,
2013-07-14 00:43:00,67.0,64.0,30.04,South,175,0.0,0.0,91,0.00,,,0.04,,2013-07-14 05:43:00,
2013-07-14 00:53:00,67.0,64.0,30.05,South,175,0.0,0.0,91,0.00,,,0.04,,2013-07-14 05:53:00,
2013-07-14 01:01:00,67.0,64.0,30.05,South,175,0.0,0.0,91,0.00,,,0.04,,2013-07-14 06:01:00,
2013-07-14 01:11:00,68.0,65.0,30.05,South,175,0.0,1.0,90,0.00,,,0.04,,2013-07-14 06:11:00,
2013-07-14 01:22:00,68.0,64.0,30.05,West,259,0.0,6.0,87,0.00,,,0.04,,2013-07-14 06:22:00,
2013-07-14 01:32:00,68.0,64.0,30.05,West,259,0.0,6.0,87,0.00,,,0.04,,2013-07-14 06:32:00,
2013-07-14 01:42:00,67.0,65.0,30.05,West,259,0.0,1.0,92,0.03,,,0.07,,2013-07-14 06:42:00,
2013-07-14 01:53:00,67.0,65.0,30.04,West,259,0.0,1.0,94,0.03,,,0.07,,2013-07-14 06:53:00,
2013-07-14 02:02:00,67.0,65.0,30.04,West,259,0.0,1.0,94,0.03,,,0.07,,2013-07-14 07:02:00,
2013-07-14 02:12:00,67.0,65.0,30.05,West,259,0.0,0.0,94,0.03,,,0.07,,2013-07-14 07:12:00,
2013-07-14 02:22:00,67.0,66.0,30.05,West,259,0.0,0.0,95,0.03,,,0.07,,2013-07-14 07:22:00,
2013-07-14 02:33:00,67.0,66.0,30.05,West,259,0.0,0.0,95,0.03,,,0.07,,2013-07-14 07:33:00,
2013-07-14 02:43:00,67.0,66.0,30.04,West,259,0.0,0.0,95,0.00,,,0.07,,2013-07-14 07:43:00,
2013-07-14 02:53:00,68.0,66.0,30.05,West,259,0.0,1.0,94,0.00,,,0.07,,2013-07-14 07:53:00,
2013-07-14 03:01:00,68.0,66.0,30.05,West,259,0.0,1.0,94,0.00,,,0.07,,2013-07-14 08:01:00,
2013-07-14 03:11:00,68.0,66.0,30.05,West,259,0.0,0.0,92,0.00,,,0.07,,2013-07-14 08:11:00,
2013-07-14 03:32:00,68.0,66.0,30.05,West,259,0.0,0.0,93,0.00,,,0.07,,2013-07-14 08:32:00,
2013-07-14 03:42:00,68.0,66.0,30.05,West,259,0.0,0.0,93,0.00,,,0.07,,2013-07-14 08:42:00,
2013-07-14 04:01:00,68.0,65.0,30.05,West,259,0.0,1.0,90,0.00,,,0.07,,2013-07-14 09:01:00,
2013-07-14 04:11:00,68.0,65.0,30.05,West,259,0.0,1.0,89,0.00,,,0.07,,2013-07-14 09:11:00,
2013-07-14 04:32:00,68.0,65.0,30.05,West,259,0.0,2.0,91,0.00,,,0.07,,2013-07-14 09:32:00,
2013-07-14 04:42:00,68.0,65.0,30.05,West,259,0.0,2.0,91,0.00,,,0.07,,2013-07-14 09:42:00,
2013-07-14 05:01:00,68.0,66.0,30.06,West,259,0.0,1.0,92,0.04,,,0.11,,2013-07-14 10:01:00,
2013-07-14 05:11:00,67.0,65.0,30.06,West,259,0.0,1.0,94,0.07,,,0.14,,2013-07-14 10:11:00,
2013-07-14 05:32:00,67.0,65.0,30.05,WNW,288,0.0,2.0,94,0.08,,,0.15,,2013-07-14 10:32:00,
2013-07-14 05:42:00,67.0,65.0,30.05,South,184,1.0,4.0,94,0.08,,,0.15,,2013-07-14 10:42:00,
2013-07-14 06:02:00,67.0,65.0,30.06,South,184,0.0,3.0,93,0.04,,,0.15,,2013-07-14 11:02:00,
2013-07-14 06:11:00,67.0,65.0,30.06,South,184,0.0,0.0,94,0.01,,,0.15,,2013-07-14 11:11:00,
2013-07-14 06:32:00,67.0,66.0,30.06,South,184,0.0,0.0,95,0.00,,,0.12,,2013-07-14 11:32:00,
2013-07-14 06:43:00,67.0,66.0,30.07,South,184,0.0,0.0,96,0.00,,,0.12,,2013-07-14 11:43:00,
2013-07-14 07:02:00,67.0,66.0,30.07,South,184,0.0,2.0,96,0.00,,,0.12,,2013-07-14 12:02:00,
2013-07-14 07:11:00,68.0,66.0,30.07,SSE,160,0.0,2.0,93,0.00,,,0.12,,2013-07-14 12:11:00,
2013-07-14 07:22:00,68.0,66.0,30.07,SSE,160,0.0,2.0,93,0.00,,,0.12,,2013-07-14 12:22:00,
2013-07-14 07:33:00,68.0,66.0,30.07,SSW,193,0.0,3.0,93,0.00,,,0.11,,2013-07-14 12:33:00,
2013-07-14 07:52:00,68.0,66.0,30.08,SSW,193,0.0,1.0,94,0.00,,,0.11,,2013-07-14 12:52:00,
2013-07-14 08:01:00,68.0,66.0,30.09,SSW,193,0.0,1.0,94,0.00,,,0.11,,2013-07-14 13:01:00,
2013-07-14 08:11:00,68.0,66.0,30.09,SSW,193,0.0,2.0,93,0.00,,,0.11,,2013-07-14 13:11:00,
2013-07-14 08:22:00,68.0,66.0,30.09,SSW,193,0.0,2.0,93,0.00,,,0.11,,2013-07-14 13:22:00,
2013-07-14 08:32:00,68.0,66.0,30.08,SSW,193,0.0,2.0,94,0.00,,,0.11,,2013-07-14 13:32:00,
2013-07-14 08:42:00,69.0,67.0,30.08,SSW,193,1.0,3.0,93,0.00,,,0.11,,2013-07-14 13:42:00,
2013-07-14 08:53:00,69.0,67.0,30.08,SSW,193,1.0,3.0,93,0.00,,,0.11,,2013-07-14 13:53:00,
2013-07-14 09:02:00,69.0,66.0,30.08,SSW,195,1.0,3.0,91,0.00,,,0.11,,2013-07-14 14:02:00,
2013-07-14 09:11:00,70.0,66.0,30.08,South,175,2.0,5.0,88,0.00,,,0.11,,2013-07-14 14:11:00,
2013-07-14 09:33:00,71.0,67.0,30.09,NW,309,0.0,5.0,86,0.00,,,0.11,,2013-07-14 14:33:00,
2013-07-14 09:43:00,72.0,67.0,30.09,West,279,2.0,8.0,83,0.00,,,0.11,,2013-07-14 14:43:00,
2013-07-14 09:53:00,72.0,67.0,30.09,West,279,2.0,8.0,83,0.00,,,0.11,,2013-07-14 14:53:00,
2013-07-14 10:01:00,72.0,66.0,30.09,SSW,196,2.0,7.0,82,0.00,,,0.11,,2013-07-14 15:01:00,
2013-07-14 10:12:00,73.0,67.0,30.10,WSW,251,2.0,8.0,81,0.00,,,0.11,,2013-07-14 15:12:00,
2013-07-14 10:22:00,73.0,67.0,30.10,WSW,251,2.0,8.0,81,0.00,,,0.11,,2013-07-14 15:22:00,
2013-07-14 10:32:00,75.0,68.0,30.10,WSW,255,1.0,10.0,78,0.00,,,0.11,,2013-07-14 15:32:00,
2013-07-14 10:42:00,74.0,67.0,30.10,South,171,2.0,6.0,78,0.00,,,0.11,,2013-07-14 15:42:00,
2013-07-14 10:53:00,74.0,67.0,30.10,South,171,2.0,6.0,78,0.00,,,0.11,,2013-07-14 15:53:00,
2013-07-14 11:01:00,74.0,67.0,30.10,South,186,0.0,7.0,79,0.00,,,0.11,,2013-07-14 16:01:00,
2013-07-14 11:11:00,74.0,67.0,30.10,West,269,1.0,5.0,80,0.00,,,0.11,,2013-07-14 16:11:00,
2013-07-14 11:22:00,74.0,67.0,30.10,West,269,1.0,5.0,80,0.00,,,0.11,,2013-07-14 16:22:00,
2013-07-14 11:32:00,74.0,67.0,30.10,SSW,200,0.0,5.0,79,0.00,,,0.11,,2013-07-14 16:32:00,
2013-07-14 11:43:00,74.0,67.0,30.10,WNW,287,1.0,4.0,78,0.00,,,0.11,,2013-07-14 16:43:00,
2013-07-14 11:53:00,74.0,67.0,30.10,WNW,287,1.0,4.0,78,0.00,,,0.11,,2013-07-14 16:53:00,
2013-07-14 12:02:00,75.0,68.0,30.11,SE,141,1.0,6.0,78,0.00,,,0.11,,2013-07-14 17:02:00,
2013-07-14 12:11:00,76.0,68.0,30.11,South,175,1.0,6.0,76,0.00,,,0.11,,2013-07-14 17:11:00,
2013-07-14 12:22:00,76.0,68.0,30.11,South,175,1.0,6.0,76,0.00,,,0.11,,2013-07-14 17:22:00,
2013-07-14 12:32:00,77.0,66.0,30.11,WSW,241,3.0,9.0,70,0.00,,,0.11,,2013-07-14 17:32:00,
2013-07-14 12:43:00,76.0,67.0,30.11,SE,144,2.0,6.0,73,0.00,,,0.11,,2013-07-14 17:43:00,
2013-07-14 12:53:00,76.0,67.0,30.11,SE,144,2.0,6.0,73,0.00,,,0.11,,2013-07-14 17:53:00,
2013-07-14 13:01:00,76.0,67.0,30.11,SE,144,2.0,6.0,73,0.00,,,0.11,,2013-07-14 18:01:00,
2013-07-14 13:11:00,76.0,67.0,30.11,South,180,1.0,5.0,74,0.00,,,0.11,,2013-07-14 18:11:00,
2013-07-14 13:22:00,76.0,67.0,30.11,South,180,1.0,5.0,74,0.00,,,0.11,,2013-07-14 18:22:00,
2013-07-14 13:32:00,77.0,67.0,30.10,ESE,105,2.0,7.0,72,0.00,,,0.11,,2013-07-14 18:32:00,
2013-07-14 13:42:00,78.0,68.0,30.11,SSW,192,2.0,8.0,72,0.00,,,0.11,,2013-07-14 18:42:00,
2013-07-14 13:52:00,78.0,68.0,30.11,SSW,192,2.0,8.0,72,0.00,,,0.11,,2013-07-14 18:52:00,
2013-07-14 14:01:00,79.0,68.0,30.10,South,175,1.0,6.0,70,0.00,,,0.11,,2013-07-14 19:01:00,
2013-07-14 14:22:00,79.0,68.0,30.10,West,281,1.0,6.0,69,0.00,,,0.11,,2013-07-14 19:22:00,
2013-07-14 14:32:00,81.0,69.0,30.10,SSE,163,1.0,8.0,66,0.00,,,0.11,,2013-07-14 19:32:00,
2013-07-14 14:43:00,81.0,68.0,30.10,SSW,202,2.0,6.0,65,0.00,,,0.11,,2013-07-14 19:43:00,
2013-07-14 14:52:00,81.0,68.0,30.10,SSW,202,2.0,6.0,65,0.00,,,0.11,,2013-07-14 19:52:00,
2013-07-14 15:02:00,82.0,70.0,30.10,West,269,2.0,6.0,67,0.00,,,0.11,,2013-07-14 20:02:00,
2013-07-14 15:11:00,83.0,69.0,30.10,West,263,1.0,5.0,63,0.00,,,0.11,,2013-07-14 20:11:00,
2013-07-14 15:22:00,83.0,69.0,30.10,West,263,1.0,5.0,63,0.00,,,0.11,,2013-07-14 20:22:00,
2013-07-14 15:32:00,83.0,70.0,30.09,WNW,290,2.0,6.0,66,0.00,,,0.11,,2013-07-14 20:32:00,
2013-07-14 15:43:00,83.0,70.0,30.09,West,263,0.0,5.0,64,0.00,,,0.11,,2013-07-14 20:43:00,
2013-07-14 15:53:00,83.0,70.0,30.09,West,263,0.0,5.0,64,0.00,,,0.11,,2013-07-14 20:53:00,
2013-07-14 16:02:00,83.0,70.0,30.09,NNE,26,0.0,2.0,64,0.00,,,0.11,,2013-07-14 21:02:00,
2013-07-14 16:11:00,82.0,69.0,30.09,NNE,26,1.0,3.0,65,0.00,,,0.11,,2013-07-14 21:11:00,
2013-07-14 16:22:00,82.0,69.0,30.09,NNE,26,1.0,3.0,65,0.00,,,0.11,,2013-07-14 21:22:00,
2013-07-14 16:32:00,83.0,70.0,30.09,NE,52,0.0,3.0,65,0.00,,,0.11,,2013-07-14 21:32:00,
2013-07-14 16:43:00,83.0,69.0,30.09,NE,52,0.0,3.0,63,0.00,,,0.11,,2013-07-14 21:43:00,
2013-07-14 16:52:00,83.0,69.0,30.09,NE,52,0.0,3.0,63,0.00,,,0.11,,2013-07-14 21:52:00,
2013-07-14 17:01:00,82.0,69.0,30.09,NE,44,0.0,2.0,66,0.00,,,0.11,,2013-07-14 22:01:00,
2013-07-14 17:11:00,83.0,70.0,30.09,NE,36,0.0,3.0,65,0.00,,,0.11,,2013-07-14 22:11:00,
2013-07-14 17:22:00,83.0,70.0,30.09,NE,36,0.0,3.0,65,0.00,,,0.11,,2013-07-14 22:22:00,
2013-07-14 17:32:00,82.0,69.0,30.09,WSW,251,0.0,2.0,66,0.00,,,0.11,,2013-07-14 22:32:00,
2013-07-14 17:42:00,82.0,70.0,30.09,WNW,287,0.0,2.0,67,0.00,,,0.11,,2013-07-14 22:42:00,
2013-07-14 17:53:00,82.0,70.0,30.09,WNW,287,0.0,2.0,67,0.00,,,0.11,,2013-07-14 22:53:00,
2013-07-14 18:01:00,82.0,69.0,30.09,WNW,296,0.0,2.0,66,0.00,,,0.11,,2013-07-14 23:01:00,
2013-07-14 18:11:00,81.0,69.0,30.09,NNE,15,0.0,2.0,67,0.00,,,0.11,,2013-07-14 23:11:00,
2013-07-14 18:22:00,81.0,69.0,30.09,NNE,15,0.0,2.0,67,0.00,,,0.11,,2013-07-14 23:22:00,
2013-07-14 18:32:00,81.0,69.0,30.09,West,272,0.0,3.0,66,0.00,,,0.11,,2013-07-14 23:32:00,
2013-07-14 18:42:00,81.0,68.0,30.10,WNW,298,0.0,2.0,64,0.00,,,0.11,,2013-07-14 23:42:00,
2013-07-14 18:53:00,81.0,68.0,30.10,WNW,298,0.0,2.0,64,0.00,,,0.11,,2013-07-14 23:53:00,
2013-07-14 19:02:00,80.0,68.0,30.10,WNW,288,0.0,3.0,67,0.00,,,0.11,,2013-07-15 00:02:00,
2013-07-14 19:11:00,79.0,68.0,30.11,WNW,288,0.0,0.0,69,0.00,,,0.11,,2013-07-15 00:11:00,
2013-07-14 19:22:00,79.0,68.0,30.11,WNW,288,0.0,0.0,69,0.00,,,0.11,,2013-07-15 00:22:00,
2013-07-14 19:32:00,79.0,68.0,30.10,WNW,288,0.0,0.0,69,0.00,,,0.11,,2013-07-15 00:32:00,
2013-07-14 19:43:00,78.0,68.0,30.10,WNW,288,0.0,0.0,71,0.00,,,0.11,,2013-07-15 00:43:00,
2013-07-14 19:53:00,78.0,68.0,30.10,WNW,288,0.0,0.0,71,0.00,,,0.11,,2013-07-15 00:53:00,
2013-07-14 20:01:00,78.0,67.0,30.11,NNW,333,0.0,2.0,69,0.00,,,0.11,,2013-07-15 01:01:00,
2013-07-14 20:11:00,78.0,67.0,30.11,NNW,333,0.0,1.0,68,0.00,,,0.11,,2013-07-15 01:11:00,
2013-07-14 20:22:00,78.0,67.0,30.11,NNW,333,0.0,1.0,68,0.00,,,0.11,,2013-07-15 01:22:00,
2013-07-14 20:32:00,77.0,66.0,30.11,NNW,333,0.0,1.0,70,0.00,,,0.11,,2013-07-15 01:32:00,
2013-07-14 20:43:00,77.0,67.0,30.11,NNW,333,0.0,0.0,71,0.00,,,0.11,,2013-07-15 01:43:00,
2013-07-14 20:53:00,77.0,67.0,30.11,NNW,333,0.0,0.0,71,0.00,,,0.11,,2013-07-15 01:53:00,
2013-07-14 21:02:00,76.0,67.0,30.12,NNW,342,0.0,2.0,73,0.00,,,0.11,,2013-07-15 02:02:00,
2013-07-14 21:11:00,75.0,67.0,30.12,NE,48,0.0,3.0,75,0.00,,,0.11,,2013-07-15 02:11:00,
2013-07-14 21:22:00,75.0,67.0,30.12,NE,48,0.0,3.0,75,0.00,,,0.11,,2013-07-15 02:22:00,
2013-07-14 21:32:00,73.0,66.0,30.13,NE,48,0.0,1.0,79,0.00,,,0.11,,2013-07-15 02:32:00,
2013-07-14 21:42:00,73.0,66.0,30.14,NE,48,0.0,1.0,79,0.00,,,0.11,,2013-07-15 02:42:00,
2013-07-14 21:53:00,73.0,66.0,30.14,NE,48,0.0,1.0,79,0.00,,,0.11,,2013-07-15 02:53:00,
2013-07-14 22:02:00,72.0,65.0,30.14,NE,48,0.0,1.0,79,0.00,,,0.11,,2013-07-15 03:02:00,
2013-07-14 22:11:00,72.0,65.0,30.14,NE,48,0.0,1.0,80,0.00,,,0.11,,2013-07-15 03:11:00,
2013-07-14 22:22:00,72.0,65.0,30.14,NE,48,0.0,1.0,80,0.00,,,0.11,,2013-07-15 03:22:00,
2013-07-14 22:32:00,71.0,65.0,30.14,NE,48,0.0,0.0,81,0.00,,,0.11,,2013-07-15 03:32:00,
2013-07-14 22:43:00,71.0,65.0,30.14,NE,48,0.0,0.0,81,0.00,,,0.11,,2013-07-15 03:43:00,
2013-07-14 22:53:00,71.0,65.0,30.14,NE,48,0.0,0.0,81,0.00,,,0.11,,2013-07-15 03:53:00,
2013-07-14 23:01:00,70.0,65.0,30.15,NE,48,0.0,0.0,84,0.00,,,0.11,,2013-07-15 04:01:00,
2013-07-14 23:11:00,69.0,64.0,30.15,NE,48,0.0,0.0,85,0.00,,,0.11,,2013-07-15 04:11:00,
2013-07-14 23:22:00,69.0,64.0,30.15,NE,48,0.0,0.0,85,0.00,,,0.11,,2013-07-15 04:22:00,
2013-07-14 23:32:00,69.0,65.0,30.15,NE,48,0.0,0.0,88,0.00,,,0.11,,2013-07-15 04:32:00,
2013-07-14 23:42:00,68.0,65.0,30.16,NE,48,0.0,0.0,89,0.00,,,0.11,,2013-07-15 04:42:00,
2013-07-14 23:53:00,68.0,65.0,30.16,NE,48,0.0,0.0,89,0.00,,,0.11,,2013-07-15 04:53:00,